This is the latest recevied weather packets stored in our database for station/object N3TJJ-11. If no packets are shown the sender has not sent any weather packets the latest 10 day(s).
| Time | Temp. | Humidity | Pressure | Rain* | Wind** | Luminosity | Snow |
|---|---|---|---|---|---|---|---|
| 1777925627 | 21.11° C | 38% | 1008.3 hPa | 0 mm | - | - | - |
| 1777925506 | 21.11° C | 38% | 1008.4 hPa | 0 mm | - | - | - |
| 1777925027 | 20.56° C | 39% | 1008.5 hPa | 0 mm | - | - | - |
| 1777924786 | 20.56° C | 38% | 1008.6 hPa | 0 mm | - | - | - |
| 1777924427 | 20.56° C | 40% | 1008.7 hPa | 0 mm | - | - | - |
| 1777924066 | 20.56° C | 39% | 1008.8 hPa | 0 mm | - | - | - |
| 1777923827 | 20.56° C | 38% | 1008.8 hPa | 0 mm | - | - | - |
| 1777923346 | 20.56° C | 40% | 1008.9 hPa | 0 mm | - | - | - |
| 1777923227 | 20.56° C | 39% | 1008.9 hPa | 0 mm | - | - | - |
| 1777922626 | 20.56° C | 42% | 1009.2 hPa | 0 mm | - | - | - |
| 1777922027 | 20.56° C | 40% | 1009.3 hPa | 0 mm | - | - | - |
| 1777921906 | 20.56° C | 42% | 1009.2 hPa | 0 mm | - | - | - |
| 1777921428 | 20° C | 39% | 1009.3 hPa | 0 mm | - | - | - |
| 1777921186 | 20.56° C | 40% | 1009.5 hPa | 0 mm | - | - | - |
| 1777920829 | 20.56° C | 39% | 1009.5 hPa | 0 mm | - | - | - |
| 1777920466 | 20° C | 42% | 1009.6 hPa | 0 mm | - | - | - |
| 1777920227 | 20° C | 39% | 1009.6 hPa | 0 mm | - | - | - |
| 1777919746 | 20° C | 40% | 1009.6 hPa | 0 mm | - | - | - |
| 1777919627 | 20° C | 42% | 1009.7 hPa | 0 mm | - | - | - |
| 1777919026 | 19.44° C | 42% | 1009.7 hPa | 0 mm | - | - | - |
| 1777918427 | 19.44° C | 41% | 1009.9 hPa | 0 mm | - | - | - |
| 1777918306 | 19.44° C | 40% | 1009.9 hPa | 0 mm | - | - | - |
| 1777917827 | 19.44° C | 42% | 1010 hPa | 0 mm | - | - | - |
| 1777917586 | 19.44° C | 42% | 1010.1 hPa | 0 mm | - | - | - |
| 1777917227 | 18.89° C | 41% | 1010.3 hPa | 0 mm | - | - | - |
* Rain latest hour (hover to see other rain measurements)
** Current wind speed in m/s (hover to see current wind gust speed)